COSMOS 2251 DEB

Satellite information

Favourite Embed

Satellite Type and Status

DEBRISIN ORBIT

Key statistics

Satellite COSMOS 2251 DEB at a glance.

Uptime

11709

Days in orbit

Revolutions

≈ 14.7

Per day

Orbit

LEO

Low Earth Orbit

Inclination

74.0

Latest

Satellite identification and parameters

Extended collection of information and parameters for COSMOS 2251 DEB.

Object identification

Identified? True

Debris? True

Object name: COSMOS 2251 DEB

International designator: 1993-036AKD

Object number (NORAD): 35435

Object ID (CCSDS): 35435

Country: COMMONWEALTH OF INDEPENDENT STATES (CIS)

Current information (Y/N): Y

RCS size: SMALL

Orbital parameters

Period: 97.764 minutes

Inclination: 74.0139 deg

SMA: 7029.866 km

Apoapsis: 663.39 km

Periapsis: 640.072 km

RAAN: 60.6892 deg

Eccentricy: 0.0016585

Argument of periapsis: 185.8124 deg

Mean anomaly: 239.1422 deg

Mean motion: 14.72930298 rev/day

Mean motion (dot): 0.00008418 rev/day2

B* drag term: 0.0013132 1/REarth

Two-line elements (TLE)

Creation date: July 4, 2025, 6:39 p.m.

Reference frame: TEME

Reference center: EARTH

Epoch: July 4, 2025, 12:11 a.m. UTC

TLE line 0: 0 COSMOS 2251 DEB

TLE line 1: 1 35435U 93036AKD 25185.00798887 .00008418 00000-0 13132-2 0 9992

TLE line 2: 2 35435 74.0139 60.6892 0016585 185.8124 239.1422 14.72930298851542

Live tracking on map

Real-time ground track for satellite COSMOS 2251 DEB.

In-orbit conjunctions

A list of the most updated potential collisions computed for object COSMOS 2251 DEB.

Target Orbit TCA Probability of collision Miss distance Type
CZ-6A DEB LEO 2024-11-13 20:31:41 0.0001669878 94.0 (m) DEBRIS
FENGYUN 1C DEB SSO 2024-10-17 13:15:04 0.0001166888 271.0 (m) DEBRIS

Associated space launch

Military communications satellite. Destroyed in a collision with Iridium 33.

COSMOS 2251 DEB was lifted into orbit during the mission ‘Kosmos-3M | Strela-2M 51’, on board a Kosmos-3M space rocket.

The launch took place on June 16, 1993, 4:17 a.m. from 132/1 (132L).

For more information about the launch, click the button.

Launch to space Kosmos-3M | Strela-2M 51
Kosmos-3M | Strela-2M 51

Agency: N/A

Status: Launch Successful

Launch date: June 16, 1993, 4:17 a.m. UTC

Rocket: Kosmos-3M

Launch pad: 132/1 (132L)

Location: Plesetsk Cosmodrome, Russian Federation

...

Latest news about this satellite

There are no fresh news available about this satellite. Check back as we update our databases every day.


Newsletter sign-up

Weekly statistics, charts and insights to help you stay on top of the space industry.